CST,Max TemperatureF,Mean TemperatureF,Min TemperatureF,Max Dew PointF,MeanDew PointF,Min DewpointF,Max Humidity, Mean Humidity, Min Humidity, Max Sea Level PressureIn, Mean Sea Level PressureIn, Min Sea Level PressureIn, Max VisibilityMiles, Mean VisibilityMiles, Min VisibilityMiles, Max Wind SpeedMPH, Mean Wind SpeedMPH, Max Gust SpeedMPH,PrecipitationIn, CloudCover, Events, WindDirDegrees
2013-1-1,26,18,9,19,13,8,92,77,62,30.33,30.28,30.19,10,10,5,15,7,18,0.00,3,,345
2013-1-2,33,21,8,23,14,5,92,72,51,30.29,30.24,30.18,10,10,9,17,9,21,0.00,1,,223
2013-1-3,37,29,21,28,23,19,92,76,59,30.45,30.39,30.27,10,8,3,10,6,13,0.00,4,,277
2013-1-4,40,29,18,24,21,17,92,71,50,30.45,30.38,30.30,10,9,5,17,9,22,0.00,0,,217
2013-1-5,41,36,31,34,29,23,79,72,64,30.30,30.20,30.12,10,10,6,20,12,26,0.01,5,Rain,219
2013-1-6,37,30,23,26,21,18,82,67,52,30.40,30.32,30.18,10,10,6,18,8,24,0.00,2,,272
2013-1-7,50,38,25,26,23,18,81,60,39,30.36,30.23,30.11,10,10,10,21,12,26,0.00,0,,188
2013-1-8,55,44,34,37,28,23,68,55,31,30.19,30.10,30.03,10,10,10,17,10,22,0.00,2,,197
2013-1-9,56,45,34,36,33,29,92,67,41,30.43,30.38,30.22,10,10,5,12,6,15,0.00,0,,108
2013-1-10,53,46,39,52,44,27,100,75,49,30.37,30.00,29.77,10,6,2,21,12,25,0.29,7,Rain,130
2013-1-11,65,58,50,48,46,43,93,71,48,29.81,29.74,29.65,10,10,7,28,15,39,0.01,3,,194
2013-1-12,60,42,24,45,25,19,93,80,43,30.07,29.99,29.76,10,7,1,21,14,28,0.17,7,Rain-Snow,339
2013-1-13,25,21,16,18,12,8,81,70,59,30.41,30.21,30.02,10,10,10,17,10,23,0.00,3,,317
2013-1-14,29,20,11,11,9,6,83,63,42,30.54,30.48,30.44,10,10,10,10,3,12,0.00,0,,336
2013-1-15,30,21,11,17,11,7,84,65,46,30.44,30.34,30.22,10,10,10,8,3,9,0.00,1,,62
2013-1-16,41,29,16,24,17,10,80,62,44,30.22,30.14,30.06,10,10,10,21,10,29,0.00,1,,229
2013-1-17,41,35,28,29,26,24,85,70,54,30.50,30.41,30.19,10,10,10,21,9,25,0.00,0,,337
2013-1-18,56,43,30,29,26,24,78,55,32,30.47,30.27,30.08,10,10,10,28,16,38,0.00,0,,203
2013-1-19,59,50,41,36,32,29,62,50,37,30.23,30.07,29.99,10,10,10,29,15,38,0.00,0,,244
2013-1-20,42,33,24,30,17,12,76,60,44,30.40,30.34,30.25,10,10,10,14,9,16,0.00,1,,5
2013-1-21,25,21,16,12,6,-1,80,60,39,30.46,30.43,30.40,10,10,10,20,10,24,0.00,5,,325
2013-1-22,29,22,15,9,4,-1,62,50,37,30.48,30.39,30.33,10,10,10,10,6,14,0.00,2,,74
2013-1-23,47,31,15,24,16,5,73,57,41,30.43,30.29,30.18,10,10,5,18,7,23,0.00,0,,356
2013-1-24,29,21,13,13,7,2,68,55,42,30.57,30.41,30.22,10,10,10,20,12,23,0.00,3,,79
2013-1-25,44,34,24,21,16,10,62,49,36,30.27,30.21,30.12,10,10,10,13,6,18,0.00,3,,278
2013-1-26,51,40,29,25,23,19,72,54,36,30.35,30.27,30.19,10,10,10,14,8,16,0.00,0,,104
2013-1-27,60,48,36,52,42,23,89,72,54,30.16,29.97,29.83,10,9,7,25,16,35,0.13,6,Rain,165
2013-1-28,76,66,56,59,56,52,86,68,50,29.90,29.84,29.73,10,10,8,29,14,37,0.00,5,,196
2013-1-29,69,55,40,60,53,37,100,87,73,29.71,29.57,29.48,10,6,0,30,10,39,2.05,8,Fog-Rain-Thunderstorm,232
2013-1-30,40,33,25,38,25,15,92,78,63,30.01,29.70,29.43,10,6,1,28,16,37,0.04,8,Rain-Snow,304
2013-1-31,29,20,11,20,12,-1,75,61,46,30.51,30.17,29.97,10,10,10,26,13,33,0.00,5,,288